#timestamp,LO_Frequency,Hit,StdDev 
1581163215.4,286046998.7,N
1581163235.2,286047001.9,N
1581163255.0,286047003.9,Y
1581163256.0,286047003.9,P
1581163275.8,286047003.2,N
1581163295.6,286047003.5,N
1581163315.5,286047002.2,N
1581163335.3,286047002.5,N
1581163355.1,286047002.7,N
1581163375.9,286047001.7,N
1581163395.7,286047001.9,N
1581163415.6,286047002.3,N
1581163435.4,286047000.3,N
1581163455.2,286046999.7,N
1581163475.1,286047000.7,N
1581163476.0,286047000.7,N
1581163495.8,286047001.2,N
1581163515.6,286047000.9,N
1581163535.5,286046998.5,N
1581163555.3,286046999.3,N
1581163575.2,286046999.4,N
1581163595.9,286046997.1,N
1581163615.7,286047001.1,N
1581163635.6,286046998.3,N
1581163655.4,286046998.9,N
1581163675.3,286046999.3,N
1581163695.1,286046999.0,N
1581163696.0,286046999.0,N
1581163715.8,286046998.8,N
1581163735.7,286047002.2,N
1581163755.5,286046998.8,N
1581163775.3,286046997.4,N
1581163795.2,286047002.8,N
1581163815.0,286047001.9,N
1581163815.9,286047001.9,N
1581163835.8,286047003.0,N
1581163855.6,286047003.9,N
1581163875.4,286047002.8,N
1581163895.3,286047000.1,N
1581163915.1,286046998.7,N
1581163935.9,286047000.8,N
1581163955.7,286047002.1,N
1581163975.5,286047000.6,N
1581163995.4,286047000.6,N
1581164015.2,286047002.8,N
1581164035.1,286047000.3,N
1581164036.0,286047000.3,N
1581164055.8,286047002.3,N
1581164075.6,286047004.0,N
1581164095.5,286047002.5,N
1581164115.3,286047001.9,N
1581164135.1,286047003.9,N
1581164155.9,286047002.8,N
1581164175.7,286047000.1,N
1581164195.6,286047001.2,N
1581164215.4,286047001.0,N
1581164235.2,286046999.8,N
1581164255.1,286047003.9,N
1581164256.0,286047003.9,N
1581164275.8,286047003.5,N
1581164295.7,286047001.8,N
1581164315.5,286047002.8,N
1581164335.3,286047002.8,N
1581164355.2,286047000.1,N
1581164375.0,286046998.2,N
1581164375.9,286046998.2,N
1581164395.8,286047001.9,N
1581164415.6,286047004.2,N
1581164435.4,286047002.2,N
1581164455.3,286047002.0,N
1581164475.1,286046999.8,N
1581164495.9,286046998.5,N
1581164515.7,286047000.4,N
1581164535.5,286047000.6,N
1581164555.4,286046998.1,N
1581164575.2,286046998.5,N
1581164595.0,286046999.0,N
1581164595.9,286046999.0,N
1581164615.8,286046999.2,N
1581164635.6,286046998.5,N
1581164655.5,286046999.8,N
1581164675.3,286047000.4,N
1581164695.1,286047002.5,N
1581164715.9,286047001.4,N
1581164735.7,286047003.4,N
1581164755.6,286047002.2,N
1581164775.4,286047002.6,N
1581164795.2,286047002.2,N
1581164815.1,286047002.1,N
1581164816.0,286047002.1,N
1581164835.8,286047002.5,N
1581164855.6,286046999.3,N
1581164875.5,286047000.4,N
1581164895.3,286047000.1,N
1581164915.2,286047000.9,N
1581164935.9,286047000.1,N
1581164955.7,286047001.7,N
1581164975.6,286047004.3,N
1581164995.4,286047001.8,N
1581165015.3,286047000.1,N
1581165035.1,286047003.7,N
1581165036.0,286047003.7,N
1581165055.8,286047005.1,Y
1581165075.7,286047001.5,P
1581165095.5,286047002.6,P
1581165115.3,286047002.2,P
1581165135.2,286047001.7,N
1581165155.0,286047002.5,Y
1581165155.9,286047002.5,P
1581165175.8,286047002.3,P
1581165195.6,286046999.8,N
1581165215.4,286047000.8,N
1581165235.3,286046998.3,N
1581165255.1,286046998.4,N
1581165275.9,286047000.7,N
1581165295.7,286046997.4,N
1581165315.5,286046999.5,N
1581165335.4,286047000.1,N
1581165355.2,286047000.4,N
1581165375.1,286047000.6,N
1581165376.0,286047000.6,N
1581165395.8,286046999.9,N
1581165415.6,286047000.6,N
1581165435.5,286047001.1,N
1581165455.3,286046998.5,N
1581165475.2,286046999.1,N
1581165495.9,286046999.3,N
1581165515.7,286047001.1,N
1581165535.6,286047000.6,N
1581165555.4,286046999.9,N
1581165575.3,286047001.1,N
1581165595.1,286047001.0,N
1581165596.0,286047001.0,N
1581165615.8,286046998.1,N
1581165635.7,286046998.8,N
1581165655.5,286046998.7,N
1581165675.3,286047000.1,N
1581165695.2,286047000.7,N
1581165715.0,286046998.5,N
1581165715.9,286046998.5,N
1581165735.8,286046999.0,N
1581165755.6,286046997.0,N
1581165775.4,286046996.6,N
1581165795.3,286046997.1,N
1581165815.1,286046999.1,N
1581165835.8,286047000.7,N
1581165855.7,286047001.2,N
1581165875.5,286046996.6,N
1581165895.4,286046999.6,N
1581165915.2,286046997.4,N
1581165935.0,286046997.6,N
1581165935.9,286046997.6,N
1581165955.8,286046997.0,N
1581165975.6,286046998.7,N
1581165995.5,286046999.7,N
1581166015.3,286047000.3,N
1581166035.1,286047002.5,N
1581166055.9,286047002.3,N
1581166075.7,286047002.7,N
1581166095.6,286047000.5,N
1581166115.4,286046999.8,N
1581166135.2,286047002.8,N
1581166155.1,286047001.6,N
1581166156.0,286047001.6,N
1581166175.8,286047004.3,N
1581166195.7,286047002.7,N
1581166215.5,286047000.5,N
1581166235.3,286047002.0,N
1581166255.2,286047004.3,N
1581166275.0,286047001.0,N
1581166275.9,286047001.0,N
1581166295.8,286046998.4,N
1581166315.6,286046998.8,N
1581166335.4,286047000.8,N
1581166355.3,286046999.3,N
1581166375.1,286046998.7,N
1581166395.9,286046999.7,N
1581166415.7,286047002.7,N
1581166435.5,286047002.6,N
1581166455.4,286046998.4,N
1581166475.2,286046997.1,N
1581166495.0,286046997.4,N
1581166495.9,286046997.4,N
1581166515.8,286046999.4,N
1581166535.6,286046998.8,N
1581166555.5,286046999.2,N
1581166575.3,286046998.5,N
1581166595.1,286046999.5,N
1581166615.9,286046999.6,N
1581166635.7,286046997.1,N
1581166655.6,286046998.3,N
1581166675.4,286046999.6,N
1581166695.2,286046996.5,N
1581166715.1,286046998.6,N
1581166716.0,286046998.6,N
1581166735.8,286046998.8,N
1581166755.7,286046996.5,N
1581166775.5,286046999.6,N
1581166795.3,286046998.4,N
